Regional Weather Roundup
Issued by NWS

Home | Current Version | Previous Version | Graphics & Text | Print | Product List | Glossary On
Versions: 1 2 3 4 5 6 7 8 9 10 11 12 13 14 15 16 17 18 19 20 21 22 23 24 25 26 27 28
000
ASUS45 KCYS 200910
RWRWY

WYOMING REGIONAL WEATHER ROUNDUP
NATIONAL WEATHER SERVICE CHEYENNE WY
300 AM MDT FRI OCT 20 2017

NOTE:  "FAIR" INDICATES FEW OR NO CLOUDS BELOW 12,000 FEET
WITH NO SIGNIFICANT WEATHER AND/OR OBSTRUCTIONS TO VISIBILITY.

WYZ001-201000-
YELLOWSTONE NATIONAL PARK

CITY           SKY/WX    TMP DP  RH WIND       PRES   REMARKS
LK YELLOWSTONE   N/A     26  20  77 W3        29.81F
W YELLOWSTONE  NOT AVBL

$$
WYZ002>013-054>058-071-098>099-201000-
NORTHERN WYOMING

CITY           SKY/WX    TMP DP  RH WIND       PRES   REMARKS
JACKSON        FAIR      26  20  77 NE6       29.77F WCI  19
CODY           FAIR      47  18  31 SW9       29.63F
GREYBULL       FAIR      36  22  56 N3        29.60F
WORLAND        FAIR      51  21  30 SE5       29.61F
SHERIDAN       FAIR      44  27  51 CALM      29.56F
BUFFALO        FAIR      62   9  12 S17       29.62F
GILLETTE       FAIR      61  18  18 SW28      29.59F
HULETT         FAIR      63  25  23 S18G32    29.62F
NEWCASTLE      FAIR      57  23  26 SE9       29.70F

$$
WYZ014>020-022>026-101>103-201000-
CENTRAL WYOMING

CITY           SKY/WX    TMP DP  RH WIND       PRES   REMARKS
BIG PINEY      MOCLDY    38  20  48 CALM      29.83F
PINEDALE       CLOUDY    41  23  48 SE8       29.84F
DUBOIS         PTSUNNY   41  19  42 NW16      29.77F
LANDER         FAIR      48  23  37 VRB3      29.69F
RIVERTON       FAIR      42  20  41 NW3       29.70F
CASPER         FAIR      51  28  41 SW8       29.75F
DOUGLAS        FAIR      43  29  57 CALM      29.75F

$$
WYZ021-027>030-104>119-201000-
SOUTHERN WYOMING

CITY           SKY/WX    TMP DP  RH WIND       PRES   REMARKS
EVANSTON       FAIR      45  35  68 SW8       29.83F
KEMMERER       FAIR      43  28  56 CALM      29.84F
FORT BRIDGER   CLOUDY    48  33  55 SW7       29.86F
ROCK SPRINGS   FAIR      47  25  42 S10       29.83F
DIXON          FAIR      47  30  52 S7        29.91F
RAWLINS        FAIR      49  28  44 SW9       29.87F
SARATOGA       FAIR      46  30  53 S9        29.90F
LARAMIE        FAIR      39  27  62 CALM      29.92F
CHEYENNE       FAIR      46  30  53 W6        29.84F
TORRINGTON     FAIR      40  30  67 E7        29.74F
PINE BLUFFS    FAIR      34  30  86 MISG      29.81F

$$




USA.gov is the U.S. government's official web portal to all federal, state and local government web resources and services.